FW9028 Weather Reports


time (UTC)temp
F
wind
direction
speed
knots
gust
knots
rain 1hr
in
rain 24hr
in
rain mn
in
humidity
%
barometer
mb
20260508125553 86 72 2.6 7.8 0.00 0.00 0.00 72 1011.0
20260508125053 86 91 2.6 10.4 0.00 0.00 0.00 72 1011.0
20260508124553 86 105 4.3 10.4 0.00 0.00 0.00 72 1010.8
20260508124053 86 101 5.2 11.3 0.00 0.00 0.00 72 1011.0
20260508123553 86 93 7.0 11.3 0.00 0.00 0.00 72 1010.7
20260508123053 86 86 2.6 9.6 0.00 0.00 0.00 72 1010.5
20260508122553 86 112 1.7 12.2 0.00 0.00 0.00 71 1010.7
20260508122053 87 76 7.8 12.2 0.00 0.00 0.00 70 1010.6
20260508121053 87 158 1.7 12.2 0.00 0.00 0.00 71 1010.4
20260508120553 87 129 5.2 12.2 0.00 0.00 0.00 71 1010.4
20260508120053 87 112 6.1 9.6 0.00 0.00 0.00 70 1010.0
20260508115553 87 108 5.2 9.6 0.00 0.00 0.00 71 1010.1
20260508115053 87 133 2.6 7.8 0.00 0.00 0.00 71 1009.8
20260508114554 87 127 2.6 9.6 0.00 0.00 0.00 70 1009.8
20260508114053 87 54 0.9 9.6 0.00 0.00 0.00 70 1009.9
20260508113553 87 177 1.7 11.3 0.00 0.00 0.00 70 1009.7
20260508112553 87 185 1.7 10.4 0.00 0.00 0.00 69 1009.8
20260508112055 88 134 0.9 10.4 0.00 0.00 0.00 68 1009.7
20260508111053 88 116 7.8 10.4 0.00 0.00 0.00 69 1009.4
20260508110553 88 118 4.3 8.7 0.00 0.00 0.00 69 1009.4
20260508110054 88 196 1.7 12.2 0.00 0.00 0.00 69 1009.3
20260508105553 88 213 0.9 12.2 0.00 0.00 0.00 68 1009.4
20260508105053 88 157 1.7 10.4 0.00 0.00 0.00 69 1009.0
20260508104553 88 159 2.6 10.4 0.00 0.00 0.00 69 1009.2
20260508104053 88 109 7.0 10.4 0.00 0.00 0.00 68 1009.0
20260508103553 88 176 1.7 10.4 0.00 0.00 0.00 67 1008.9
20260508103053 89 111 6.1 11.3 0.00 0.00 0.00 67 1008.7
20260508102053 89 156 5.2 12.2 0.00 0.00 0.00 68 1008.8
20260508101553 89 112 7.0 12.2 0.00 0.00 0.00 68 1008.7
20260508101053 89 140 4.3 12.2 0.00 0.00 0.00 67 1008.7
20260508100553 89 79 7.8 13.9 0.00 0.00 0.00 67 1008.6
20260508100053 89 104 6.1 13.9 0.00 0.00 0.00 67 1008.7
20260508095553 90 89 3.5 12.2 0.00 0.00 0.00 68 1008.4
20260508095053 90 149 2.6 12.2 0.00 0.00 0.00 68 1008.4
20260508094553 90 126 3.5 13.0 0.00 0.00 0.00 66 1008.1
20260508094054 91 70 3.5 13.0 0.00 0.00 0.00 65 1008.2
20260508093553 91 111 6.1 10.4 0.00 0.00 0.00 65 1008.0
20260508093053 91 103 2.6 13.9 0.00 0.00 0.00 64 1007.9
20260508092553 91 147 5.2 13.9 0.00 0.00 0.00 64 1007.9
20260508092053 91 114 4.3 15.6 0.00 0.00 0.00 63 1007.9
20260508091554 92 85 4.3 15.6 0.00 0.00 0.00 64 1008.0
20260508091053 92 156 5.2 12.2 0.00 0.00 0.00 63 1008.0
20260508090053 92 75 4.3 10.4 0.00 0.00 0.00 63 1007.6
20260508085553 93 155 6.1 12.2 0.00 0.00 0.00 62 1007.7
20260508085053 92 144 1.7 12.2 0.00 0.00 0.00 62 1007.9
20260508084053 93 114 3.5 12.2 0.00 0.00 0.00 61 1007.6
20260508083554 93 94 4.3 12.2 0.00 0.00 0.00 60 1007.6
20260508082553 93 108 4.3 15.6 0.00 0.00 0.00 60 1007.5
20260508082053 93 141 4.3 13.0 0.00 0.00 0.00 58 1007.4
20260508081553 93 154 6.1 13.0 0.00 0.00 0.00 58 1007.4
20260508081053 93 113 1.7 11.3 0.00 0.00 0.00 58 1007.4
20260508080553 94 109 7.8 13.0 0.00 0.00 0.00 57 1007.5
20260508080053 94 102 5.2 13.0 0.00 0.00 0.00 56 1007.3
20260508075553 94 94 4.3 15.6 0.00 0.00 0.00 55 1007.3
20260508075053 93 99 2.6 15.6 0.00 0.00 0.00 55 1007.4
20260508074053 93 130 4.3 16.5 0.00 0.00 0.00 55 1007.4
20260508073553 94 105 8.7 14.8 0.00 0.00 0.00 54 1007.4
20260508073053 94 126 6.1 15.6 0.00 0.00 0.00 55 1007.3
20260508072053 94 105 4.3 15.6 0.00 0.00 0.00 55 1007.5
20260508071553 94 94 6.1 15.6 0.00 0.00 0.00 54 1007.3
20260508071054 93 105 3.5 15.6 0.00 0.00 0.00 54 1007.3
20260508070553 94 95 3.5 15.6 0.00 0.00 0.00 54 1007.6
20260508070053 94 121 10.4 13.0 0.00 0.00 0.00 54 1007.7
20260508065553 94 111 5.2 13.0 0.00 0.00 0.00 55 1007.6
20260508064552 94 150 3.5 15.6 0.00 0.00 0.00 54 1007.7
20260508064053 94 106 7.8 15.6 0.00 0.00 0.00 55 1007.7
20260508063553 94 110 11.3 15.6 0.00 0.00 0.00 54 1007.6
20260508063053 94 87 6.1 15.6 0.00 0.00 0.00 54 1007.8
20260508062553 94 106 5.2 16.5 0.00 0.00 0.00 55 1007.7
20260508062053 94 96 9.6 16.5 0.00 0.00 0.00 55 1008.1
20260508060053 94 76 3.5 16.5 0.00 0.00 0.00 56 1008.1
20260508055554 95 125 13.0 16.5 0.00 0.00 0.00 54 1008.0
20260508054553 95 159 4.3 13.0 0.00 0.00 0.00 54 1008.3
20260508054053 95 67 3.5 11.3 0.00 0.00 0.00 54 1008.4
20260508053553 95 162 4.3 11.3 0.00 0.00 0.00 54 1008.5
20260508053053 95 127 4.3 13.0 0.00 0.00 0.00 54 1008.3
20260508052554 94 139 7.8 15.6 0.00 0.00 0.00 55 1008.6
20260508051053 94 88 4.3 16.5 0.00 0.00 0.00 56 1008.8
20260508050554 93 93 7.8 16.5 0.00 0.00 0.00 56 1009.1
20260508050053 94 117 5.2 13.0 0.00 0.00 0.00 57 1009.0
20260508045553 94 119 7.8 13.0 0.00 0.00 0.00 57 1009.2
20260508045053 94 120 4.3 13.0 0.00 0.00 0.00 57 1009.2
20260508044553 93 95 7.0 13.0 0.00 0.00 0.00 57 1009.4
20260508044052 94 115 8.7 11.3 0.00 0.00 0.00 57 1009.2
20260508043553 93 99 2.6 14.8 0.00 0.00 0.00 59 1009.5
20260508043053 92 131 6.1 14.8 0.00 0.00 0.00 61 1009.5
20260508042553 92 116 10.4 16.5 0.00 0.00 0.00 60 1009.8
20260508041553 92 104 7.0 13.0 0.00 0.00 0.00 62 1009.6
20260508041053 92 140 9.6 13.0 0.00 0.00 0.00 62 1009.8
20260508040553 92 102 10.4 13.9 0.00 0.00 0.00 61 1009.8
20260508040053 92 117 7.0 13.9 0.00 0.00 0.00 62 1009.8
20260508035553 92 131 9.6 13.9 0.00 0.00 0.00 62 1010.1
20260508035053 91 113 4.3 13.0 0.00 0.00 0.00 65 1010.0
20260508034053 91 113 7.8 12.2 0.00 0.00 0.00 65 1009.9
20260508033553 91 172 6.1 12.2 0.00 0.00 0.00 65 1010.1
20260508033053 91 137 6.1 13.0 0.00 0.00 0.00 66 1010.1
20260508032553 91 140 7.8 13.0 0.00 0.00 0.00 65 1010.1
20260508032054 91 146 5.2 13.0 0.00 0.00 0.00 66 1010.2
20260508031553 91 94 11.3 13.0 0.00 0.00 0.00 66 1010.3
20260508031053 90 78 1.7 13.0 0.00 0.00 0.00 67 1010.4
20260508030553 91 142 9.6 12.2 0.00 0.00 0.00 66 1010.6
20260508030054 90 82 2.6 12.2 0.00 0.00 0.00 68 1010.4
20260508025553 90 134 4.3 11.3 0.00 0.00 0.00 69 1010.7
20260508025053 88 108 2.6 13.0 0.00 0.00 0.00 70 1010.6
20260508024554 88 96 9.6 13.0 0.00 0.00 0.00 71 1010.9
20260508024053 89 188 5.2 12.2 0.00 0.00 0.00 70 1010.7
20260508023053 88 114 7.0 9.6 0.00 0.00 0.00 72 1010.9
20260508022553 88 138 6.1 12.2 0.00 0.00 0.00 72 1011.2
20260508022053 87 121 6.1 13.0 0.00 0.00 0.00 72 1011.2
20260508021553 88 112 4.3 13.0 0.00 0.00 0.00 72 1011.4
20260508020553 87 100 3.5 11.3 0.00 0.00 0.00 73 1011.2
20260508020054 88 135 6.1 14.8 0.00 0.00 0.00 73 1011.5
20260508015553 88 144 10.4 14.8 0.00 0.00 0.00 72 1011.2
20260508015053 89 104 3.5 13.9 0.00 0.00 0.00 72 1011.4
20260508014553 89 122 7.8 11.3 0.00 0.00 0.00 71 1011.4
20260508014054 88 116 7.8 11.3 0.00 0.00 0.00 73 1011.5
20260508013553 88 72 2.6 12.2 0.00 0.00 0.00 73 1011.5
20260508013053 88 151 2.6 13.0 0.00 0.00 0.00 73 1011.4
20260508012553 87 138 8.7 13.0 0.00 0.00 0.00 73 1011.7
20260508012054 87 102 5.2 13.0 0.00 0.00 0.00 75 1011.5
20260508011053 86 96 1.7 13.0 0.00 0.00 0.00 76 1011.7
20260508010553 86 93 1.7 13.0 0.00 0.00 0.00 75 1011.7
20260508005553 87 140 3.5 12.2 0.00 0.00 0.00 74 1011.5
20260508004553 87 112 10.4 16.5 0.00 0.00 0.00 73 1011.6
20260508004053 88 109 6.1 13.0 0.00 0.00 0.00 72 1011.6
20260508003553 87 134 7.8 13.0 0.00 0.00 0.00 73 1011.6
20260508003053 86 89 5.2 13.9 0.00 0.00 0.00 74 1011.5
20260508002553 87 106 9.6 13.9 0.00 0.00 0.00 73 1011.6
20260508002053 87 121 3.5 11.3 0.00 0.00 0.00 73 1011.8
20260508001553 86 101 8.7 13.0 0.00 0.00 0.00 73 1011.6
20260508001053 86 120 6.1 13.0 0.00 0.00 0.00 72 1011.4
20260508000553 86 132 2.6 11.3 0.00 0.00 0.00 74 1011.3
20260508000054 87 122 6.1 12.2 0.00 0.00 0.00 74 1011.3
20260507235053 86 70 1.7 11.3 0.00 0.00 0.00 76 1011.2
20260507234554 86 114 8.7 11.3 0.00 0.00 0.00 75 1011.5
20260507234053 86 149 4.3 11.3 0.00 0.00 0.00 77 1011.4
20260507233053 85 141 3.5 10.4 0.00 0.00 0.00 78 1011.1
20260507232553 85 115 7.0 10.4 0.00 0.00 0.00 76 1010.9
20260507232053 85 81 3.5 10.4 0.00 0.00 0.00 77 1010.8
20260507231053 85 117 5.2 10.4 0.00 0.00 0.00 78 1011.1
20260507230553 84 122 3.5 10.4 0.00 0.00 0.00 78 1011.0
20260507230053 84 87 3.5 10.4 0.00 0.00 0.00 78 1010.9
20260507225553 84 117 3.5 12.2 0.00 0.00 0.00 79 1010.7
20260507225053 83 104 7.0 12.2 0.00 0.00 0.00 81 1010.8
20260507224553 83 73 3.5 9.6 0.00 0.00 0.00 84 1010.7
20260507224054 83 103 4.3 10.4 0.00 0.00 0.00 85 1010.7
20260507223553 83 100 2.6 10.4 0.00 0.00 0.00 85 1010.8
20260507223053 83 153 3.5 9.6 0.00 0.00 0.00 85 1010.7
20260507222553 82 100 5.2 9.6 0.00 0.00 0.00 85 1010.8
20260507222053 82 123 3.5 7.8 0.00 0.00 0.00 85 1010.5
20260507221554 82 101 2.6 7.8 0.00 0.00 0.00 85 1010.9
20260507221053 82 100 5.2 5.2 0.00 0.00 0.00 85 1010.6
20260507220553 82 134 1.7 5.2 0.00 0.00 0.00 84 1010.5
20260507220053 82 120 3.5 5.2 0.00 0.00 0.00 84 1010.5
20260507214553 82 132 1.7 7.0 0.00 0.00 0.00 85 1010.1
20260507214053 82 117 2.6 7.0 0.00 0.00 0.00 85 1010.3
20260507213553 82 135 4.3 6.1 0.00 0.00 0.00 86 1010.3
20260507213054 82 164 1.7 6.1 0.00 0.00 0.00 86 1010.2
20260507212553 82 118 3.5 6.1 0.00 0.00 0.00 86 1010.0
20260507212053 82 117 1.7 7.8 0.00 0.00 0.00 86 1010.0
20260507211553 82 171 3.5 11.3 0.00 0.00 0.00 86 1009.9
20260507211053 82 106 3.5 11.3 0.00 0.00 0.00 85 1009.9
20260507210553 82 110 5.2 12.2 0.00 0.00 0.00 84 1009.9
20260507210053 83 127 2.6 12.2 0.00 0.00 0.00 83 1010.0
20260507205553 83 125 8.7 11.3 0.00 0.00 0.00 82 1009.9
20260507205053 83 85 4.3 9.6 0.00 0.00 0.00 82 1009.8
20260507204554 83 128 6.1 14.8 0.00 0.00 0.00 82 1009.8
20260507204053 83 125 6.1 14.8 0.00 0.00 0.00 82 1009.7
20260507203553 83 123 4.3 11.3 0.00 0.00 0.00 81 1009.9
20260507203053 83 111 7.8 13.0 0.00 0.00 0.00 82 1009.8
20260507202553 83 133 4.3 13.0 0.00 0.00 0.00 81 1009.7
20260507202054 83 70 1.7 10.4 0.00 0.00 0.00 81 1009.7
20260507201553 83 125 3.5 9.6 0.00 0.00 0.00 81 1009.8
20260507201053 83 94 4.3 9.6 0.00 0.00 0.00 81 1009.6
20260507200553 83 109 1.7 11.3 0.00 0.00 0.00 81 1009.5
20260507200053 83 122 5.2 11.3 0.00 0.00 0.00 81 1009.5
20260507195054 83 114 1.7 10.4 0.00 0.00 0.00 81 1009.5
20260507193553 84 94 4.3 11.3 0.00 0.00 0.00 80 1009.5
20260507192553 84 174 3.5 13.0 0.00 0.00 0.00 79 1009.3
20260507192053 84 109 5.2 13.0 0.00 0.00 0.00 79 1009.3
20260507191553 84 113 5.2 12.2 0.00 0.00 0.00 79 1009.3
20260507191053 84 107 4.3 10.4 0.00 0.00 0.00 79 1009.4
20260507190553 84 105 4.3 12.2 0.00 0.00 0.00 78 1009.3
20260507185553 84 101 7.0 11.3 0.00 0.00 0.00 77 1009.2
20260507185053 84 109 7.8 11.3 0.00 0.00 0.00 77 1009.1
20260507184553 84 98 6.1 9.6 0.00 0.00 0.00 77 1009.3
20260507184053 84 94 6.1 12.2 0.00 0.00 0.00 77 1009.2
20260507183553 84 105 6.1 12.2 0.00 0.00 0.00 77 1009.2
20260507183054 84 123 7.0 11.3 0.00 0.00 0.00 76 1009.3
20260507182553 84 118 9.6 10.4 0.00 0.00 0.00 76 1009.2
20260507182053 84 104 7.0 7.8 0.00 0.00 0.00 77 1009.4
20260507181553 84 146 4.3 11.3 0.00 0.00 0.00 77 1009.5
20260507181054 84 155 4.3 11.3 0.00 0.00 0.00 77 1009.4
20260507180553 84 120 5.2 8.7 0.00 0.00 0.00 77 1009.4
20260507180053 84 120 1.7 8.7 0.00 0.00 0.00 77 1009.3
20260507175053 84 64 2.6 8.7 0.00 0.00 0.00 78 1009.1
20260507174553 84 132 4.3 11.3 0.00 0.00 0.00 77 1009.1
20260507174053 84 125 5.2 11.3 0.00 0.00 0.00 77 1009.4
20260507173553 84 154 4.3 8.7 0.00 0.00 0.00 77 1009.5
20260507173053 84 85 1.7 8.7 0.00 0.00 0.00 76 1009.4
20260507172553 84 115 6.1 9.6 0.00 0.00 0.00 76 1009.6
20260507172053 84 140 3.5 13.0 0.00 0.00 0.00 76 1009.5
20260507171552 84 145 4.3 13.0 0.00 0.00 0.00 76 1009.6
20260507171052 84 139 6.1 11.3 0.00 0.00 0.00 76 1009.7
20260507170553 84 120 6.1 11.3 0.00 0.00 0.00 76 1009.6
20260507170054 84 109 6.1 13.0 0.00 0.00 0.00 76 1009.7
20260507165553 84 111 5.2 13.0 0.00 0.00 0.00 76 1009.5
20260507164554 84 105 3.5 13.9 0.00 0.00 0.00 76 1009.5
20260507164053 84 106 7.0 13.9 0.00 0.00 0.00 75 1009.5
20260507163553 84 106 7.0 12.2 0.00 0.00 0.00 75 1009.4
20260507163053 84 108 3.5 15.6 0.00 0.00 0.00 75 1009.3
20260507162554 84 110 7.0 15.6 0.00 0.00 0.00 75 1009.6
20260507161053 84 135 6.1 13.0 0.00 0.00 0.00 75 1009.5
20260507160553 84 84 5.2 13.0 0.00 0.00 0.00 75 1009.7
20260507155553 84 120 9.6 10.4 0.00 0.00 0.00 75 1009.8
20260507155053 84 74 2.6 11.3 0.00 0.00 0.00 76 1009.8
20260507154553 85 192 0.9 12.2 0.00 0.00 0.00 75 1009.9
20260507154053 85 110 6.1 12.2 0.00 0.00 0.00 75 1009.9
20260507153553 85 130 6.1 9.6 0.00 0.00 0.00 76 1010.0
20260507153052 85 139 4.3 11.3 0.00 0.00 0.00 74 1009.9
20260507152553 85 128 5.2 11.3 0.00 0.00 0.00 74 1010.1
20260507152053 85 103 5.2 10.4 0.00 0.00 0.00 75 1010.0
20260507151553 85 108 3.5 11.3 0.00 0.00 0.00 76 1010.0
20260507150553 85 102 3.5 9.6 0.00 0.00 0.00 75 1010.2
20260507145552 85 132 0.9 10.4 0.00 0.00 0.00 74 1010.0
20260507145053 85 166 2.6 13.0 0.00 0.00 0.00 74 1010.2
20260507144053 85 93 3.5 11.3 0.00 0.00 0.00 74 1010.5
20260507143553 85 140 6.1 11.3 0.00 0.00 0.00 74 1010.2
20260507143053 85 108 5.2 10.4 0.00 0.00 0.00 73 1010.3
20260507142553 85 118 4.3 11.3 0.00 0.00 0.00 73 1010.4
20260507142053 85 122 4.3 11.3 0.00 0.00 0.00 73 1010.2
20260507141553 85 146 6.1 8.7 0.00 0.00 0.00 73 1010.3
20260507141053 85 144 7.0 11.3 0.00 0.00 0.00 73 1010.2
20260507140554 85 146 7.0 11.3 0.00 0.00 0.00 73 1010.2
20260507135553 85 135 3.5 9.6 0.00 0.00 0.00 73 1010.5
20260507135053 85 131 3.5 10.4 0.00 0.00 0.00 73 1010.2
20260507134053 85 129 4.3 11.3 0.00 0.00 0.00 73 1010.3
20260507133053 85 82 1.7 11.3 0.00 0.00 0.00 73 1010.3
20260507132553 85 109 5.2 11.3 0.00 0.00 0.00 72 1010.0
20260507132053 85 140 5.2 9.6 0.00 0.00 0.00 72 1009.9
20260507131553 85 75 6.1 12.2 0.00 0.00 0.00 72 1010.0
20260507131053 85 122 9.6 12.2 0.00 0.00 0.00 72 1010.0
20260507130553 85 84 3.5 13.0 0.00 0.00 0.00 72 1010.1
20260507130053 85 117 6.1 13.0 0.00 0.00 0.00 71 1009.7